Year,Month,Day,Hour,Minute,Value (Times are PST for temperature in C)
2011,04,25,10,09,7.00
2011,04,25,10,10,7.00
2011,04,25,10,11,7.10
2011,04,25,10,12,7.10
2011,04,25,10,13,7.10
2011,04,25,10,14,7.10
2011,04,25,10,15,7.00
2011,04,25,10,16,7.00
2011,04,25,10,17,7.00
2011,04,25,10,18,7.10
2011,04,25,10,19,7.00
2011,04,25,10,20,7.00
2011,04,25,10,21,7.00
2011,04,25,10,22,7.00
2011,04,25,10,23,7.10
2011,04,25,10,24,7.00
2011,04,25,10,25,7.00
2011,04,25,10,26,7.00
2011,04,25,10,27,7.00
2011,04,25,10,28,7.00
2011,04,25,10,29,7.00
2011,04,25,10,30,7.10
2011,04,25,10,31,7.10
2011,04,25,10,32,7.10
2011,04,25,10,33,7.20
2011,04,25,10,34,7.20
2011,04,25,10,35,7.20
2011,04,25,10,36,7.20
2011,04,25,10,37,7.20
2011,04,25,10,38,7.30
2011,04,25,10,39,7.20
2011,04,25,10,40,7.20
2011,04,25,10,41,7.20
2011,04,25,10,42,7.20
2011,04,25,10,43,7.20
2011,04,25,10,44,7.20
2011,04,25,10,45,7.20
2011,04,25,10,46,7.20
2011,04,25,10,47,7.20
2011,04,25,10,48,7.20
2011,04,25,10,49,7.20
2011,04,25,10,50,7.20
2011,04,25,10,51,7.20
2011,04,25,10,52,7.20
2011,04,25,10,53,7.20
2011,04,25,10,54,7.20
2011,04,25,10,55,7.20
2011,04,25,10,56,7.20
2011,04,25,10,57,7.20
2011,04,25,10,58,7.20
2011,04,25,10,59,7.20
2011,04,25,11,00,7.20
2011,04,25,11,01,7.20
2011,04,25,11,02,7.20
2011,04,25,11,03,7.20
2011,04,25,11,04,7.20
2011,04,25,11,05,7.20
2011,04,25,11,06,7.20
2011,04,25,11,07,7.20
2011,04,25,11,08,7.20
2011,04,25,11,09,7.20
2011,04,25,11,10,7.10
2011,04,25,11,11,7.20
2011,04,25,11,12,7.20
2011,04,25,11,13,7.20
2011,04,25,11,14,7.20
2011,04,25,11,15,7.20
2011,04,25,11,16,7.20
2011,04,25,11,17,7.20
2011,04,25,11,18,7.20
2011,04,25,11,19,7.20
2011,04,25,11,20,7.20
2011,04,25,11,21,7.20
2011,04,25,11,22,7.20
2011,04,25,11,23,7.20
2011,04,25,11,24,7.20
2011,04,25,11,25,7.20
2011,04,25,11,26,7.20
2011,04,25,11,27,7.20
2011,04,25,11,28,7.20
2011,04,25,11,29,7.20
2011,04,25,11,30,7.20
2011,04,25,11,31,7.20
2011,04,25,11,32,7.20
2011,04,25,11,33,7.20
2011,04,25,11,34,7.20
2011,04,25,11,35,7.20
2011,04,25,11,36,7.30
2011,04,25,11,37,7.30
2011,04,25,11,38,7.30
2011,04,25,11,39,7.30
2011,04,25,11,40,7.40
2011,04,25,11,41,7.40
2011,04,25,11,42,7.40
2011,04,25,11,43,7.40
2011,04,25,11,44,7.40
2011,04,25,11,45,7.30
2011,04,25,11,46,7.30
2011,04,25,11,47,7.30
2011,04,25,11,48,7.30
2011,04,25,11,49,7.30
2011,04,25,11,50,7.30
2011,04,25,11,51,7.20
2011,04,25,11,52,7.20
2011,04,25,11,53,7.20
2011,04,25,11,54,7.30
2011,04,25,11,55,7.30
2011,04,25,11,56,7.30
2011,04,25,11,57,7.30
2011,04,25,11,58,7.30
2011,04,25,11,59,7.40
2011,04,25,12,00,7.40
2011,04,25,12,01,7.40
2011,04,25,12,02,7.40
2011,04,25,12,03,7.40
2011,04,25,12,04,7.40
2011,04,25,12,05,7.40
2011,04,25,12,06,7.50
2011,04,25,12,07,7.50
2011,04,25,12,08,7.50
2011,04,25,12,09,7.50
2011,04,25,12,10,7.60
2011,04,25,12,11,7.60
2011,04,25,12,12,7.60
2011,04,25,12,13,7.60
2011,04,25,12,14,7.60
2011,04,25,12,15,7.50
2011,04,25,12,16,7.50
2011,04,25,12,17,7.50
2011,04,25,12,18,7.60
2011,04,25,12,19,7.60
2011,04,25,12,20,7.60
2011,04,25,12,21,7.60
2011,04,25,12,22,7.60
2011,04,25,12,23,7.70
2011,04,25,12,24,7.70
2011,04,25,12,25,7.70
2011,04,25,12,26,7.70
2011,04,25,12,27,7.70
2011,04,25,12,28,7.70
2011,04,25,12,29,7.70
2011,04,25,12,30,7.70
2011,04,25,12,31,7.70
2011,04,25,12,32,7.70
2011,04,25,12,33,7.70
2011,04,25,12,34,7.70
2011,04,25,12,35,7.70
2011,04,25,12,36,7.70
2011,04,25,12,37,7.70
2011,04,25,12,38,7.70
2011,04,25,12,39,7.70
2011,04,25,12,40,7.70
2011,04,25,12,41,7.70
2011,04,25,12,42,7.70
2011,04,25,12,43,7.70
2011,04,25,12,44,7.70
2011,04,25,12,45,7.70
2011,04,25,12,46,7.60
2011,04,25,12,47,7.60
2011,04,25,12,48,7.60
2011,04,25,12,49,7.60
2011,04,25,12,50,7.60
2011,04,25,12,51,7.60
2011,04,25,12,52,7.70
2011,04,25,12,53,7.70
2011,04,25,12,54,7.70
2011,04,25,12,55,7.70
2011,04,25,12,56,7.80
2011,04,25,12,57,7.80
2011,04,25,12,58,7.80
2011,04,25,12,59,7.80
2011,04,25,13,00,7.70
2011,04,25,13,01,7.70
2011,04,25,13,02,7.70
2011,04,25,13,03,7.70
2011,04,25,13,04,7.70
2011,04,25,13,05,7.70
2011,04,25,13,06,7.70
2011,04,25,13,07,7.70
2011,04,25,13,08,7.70
2011,04,25,13,09,7.80
2011,04,25,13,10,7.80
2011,04,25,13,11,7.80
2011,04,25,13,12,7.80
2011,04,25,13,13,7.80
2011,04,25,13,14,7.80
2011,04,25,13,15,7.70
2011,04,25,13,16,7.70
2011,04,25,13,17,7.70
2011,04,25,13,18,7.70
2011,04,25,13,19,7.80
2011,04,25,13,20,7.80
2011,04,25,13,21,7.80
2011,04,25,13,22,7.80
2011,04,25,13,23,7.90
2011,04,25,13,24,7.90
2011,04,25,13,25,7.90
2011,04,25,13,26,7.90
2011,04,25,13,27,7.90
2011,04,25,13,28,8.00
2011,04,25,13,29,8.10
2011,04,25,13,30,8.10
2011,04,25,13,31,8.10
2011,04,25,13,32,8.10
2011,04,25,13,33,8.10
2011,04,25,13,34,8.10
2011,04,25,13,35,8.10
2011,04,25,13,36,8.20
2011,04,25,13,37,8.20
2011,04,25,13,38,8.20
2011,04,25,13,39,8.30
2011,04,25,13,40,8.30
2011,04,25,13,41,8.30
2011,04,25,13,42,8.30
2011,04,25,13,43,8.30
2011,04,25,13,44,8.30
2011,04,25,13,45,8.30
2011,04,25,13,46,8.20
2011,04,25,13,47,8.20
2011,04,25,13,48,8.20
2011,04,25,13,49,8.20
2011,04,25,13,50,8.30
2011,04,25,13,51,8.30
2011,04,25,13,52,8.30
2011,04,25,13,53,8.30
2011,04,25,13,54,8.30
2011,04,25,13,55,8.20
2011,04,25,13,56,8.20
2011,04,25,13,57,8.20
2011,04,25,13,58,8.30
2011,04,25,13,59,8.30
2011,04,25,14,00,8.30
2011,04,25,14,01,8.40
2011,04,25,14,02,8.40
2011,04,25,14,03,8.40
2011,04,25,14,04,8.40
2011,04,25,14,05,8.50
2011,04,25,14,06,8.60
2011,04,25,14,07,8.60
2011,04,25,14,08,8.60
2011,04,25,14,09,8.60
2011,04,25,14,10,8.60
2011,04,25,14,11,8.60
2011,04,25,14,12,8.70
2011,04,25,14,13,8.70
2011,04,25,14,14,8.70
2011,04,25,14,15,8.60
2011,04,25,14,16,8.60
2011,04,25,14,17,8.60
2011,04,25,14,18,8.60
2011,04,25,14,19,8.60
2011,04,25,14,20,8.60
2011,04,25,14,21,8.60
2011,04,25,14,22,8.70
2011,04,25,14,23,8.70
2011,04,25,14,24,8.70
2011,04,25,14,25,8.70
2011,04,25,14,26,8.80
2011,04,25,14,27,8.80
2011,04,25,14,28,8.80
2011,04,25,14,29,8.80
2011,04,25,14,30,8.80
2011,04,25,14,31,8.90
2011,04,25,14,32,8.90
2011,04,25,14,33,9.00
2011,04,25,14,34,9.00
2011,04,25,14,35,9.00
2011,04,25,14,36,9.00
2011,04,25,14,37,9.00
2011,04,25,14,38,9.00
2011,04,25,14,39,9.10
2011,04,25,14,40,9.10
2011,04,25,14,41,9.10
2011,04,25,14,42,9.20
2011,04,25,14,43,9.20
2011,04,25,14,44,9.30
2011,04,25,14,45,9.30
2011,04,25,14,46,9.20
2011,04,25,14,47,9.20
2011,04,25,14,48,9.10
2011,04,25,14,49,9.00
2011,04,25,14,50,8.90
2011,04,25,14,51,8.90
2011,04,25,14,52,8.80
2011,04,25,14,53,8.80
2011,04,25,14,54,8.80
2011,04,25,14,55,8.80
2011,04,25,14,56,8.80
2011,04,25,14,57,8.80
2011,04,25,14,58,8.80
2011,04,25,14,59,8.70
2011,04,25,15,00,8.60
2011,04,25,15,01,8.60
2011,04,25,15,02,8.60
2011,04,25,15,03,8.50
2011,04,25,15,04,8.50
2011,04,25,15,05,8.40
2011,04,25,15,06,8.40
2011,04,25,15,07,8.30
2011,04,25,15,08,8.20
2011,04,25,15,09,8.20
2011,04,25,15,10,8.10
2011,04,25,15,11,8.10
2011,04,25,15,12,8.10
2011,04,25,15,13,8.10
2011,04,25,15,14,8.00
2011,04,25,15,15,8.00
2011,04,25,15,16,8.00
2011,04,25,15,17,8.00
2011,04,25,15,18,8.00
2011,04,25,15,19,8.00
2011,04,25,15,20,8.00
2011,04,25,15,21,8.00
2011,04,25,15,22,8.00
2011,04,25,15,23,8.00
2011,04,25,15,24,8.00
2011,04,25,15,25,7.90
2011,04,25,15,26,7.90
2011,04,25,15,27,7.90
2011,04,25,15,28,7.90
2011,04,25,15,29,7.90
2011,04,25,15,30,7.90
2011,04,25,15,31,7.90
2011,04,25,15,32,8.00
2011,04,25,15,33,8.00
2011,04,25,15,34,8.10
2011,04,25,15,35,8.10
2011,04,25,15,36,8.20
2011,04,25,15,37,8.20
2011,04,25,15,38,8.20
2011,04,25,15,39,8.20
2011,04,25,15,40,8.30
2011,04,25,15,41,8.30
2011,04,25,15,42,8.40
2011,04,25,15,43,8.30
2011,04,25,15,44,8.40
2011,04,25,15,45,8.40
2011,04,25,15,46,8.40
2011,04,25,15,47,8.40
2011,04,25,15,48,8.40
2011,04,25,15,49,8.40
2011,04,25,15,50,8.40
2011,04,25,15,51,8.50
2011,04,25,15,52,8.50
2011,04,25,15,53,8.60
2011,04,25,15,54,8.60
2011,04,25,15,55,8.60
2011,04,25,15,56,8.70
2011,04,25,15,57,8.60
2011,04,25,15,58,8.60
2011,04,25,15,59,8.50
2011,04,25,16,00,8.50
2011,04,25,16,01,8.60
2011,04,25,16,02,8.60
2011,04,25,16,03,8.60
2011,04,25,16,04,8.60
2011,04,25,16,05,8.60
2011,04,25,16,06,8.70
2011,04,25,16,07,8.60
2011,04,25,16,08,8.60
2011,04,25,16,09,8.70
2011,04,25,16,10,8.60
2011,04,25,16,11,8.60
2011,04,25,16,12,8.60
2011,04,25,16,13,8.60
2011,04,25,16,14,8.60
2011,04,25,16,15,8.60
2011,04,25,16,16,8.60
2011,04,25,16,17,8.60
2011,04,25,16,18,8.60
2011,04,25,16,19,8.70
2011,04,25,16,20,8.70
2011,04,25,16,21,8.70
2011,04,25,16,22,8.70
2011,04,25,16,23,8.70
2011,04,25,16,24,8.70
2011,04,25,16,25,8.70
2011,04,25,16,26,8.70
2011,04,25,16,27,8.70
2011,04,25,16,28,8.70
2011,04,25,16,29,8.70
2011,04,25,16,30,8.70
2011,04,25,16,31,8.70
2011,04,25,16,32,8.70
2011,04,25,16,33,8.70
2011,04,25,16,34,8.70
2011,04,25,16,35,8.80
2011,04,25,16,36,8.80
2011,04,25,16,37,8.70
2011,04,25,16,38,8.70
2011,04,25,16,39,8.70
2011,04,25,16,40,8.70
2011,04,25,16,41,8.70
2011,04,25,16,42,8.70
2011,04,25,16,43,8.80
2011,04,25,16,44,8.80
2011,04,25,16,45,8.80
2011,04,25,16,46,8.80
2011,04,25,16,47,8.80
2011,04,25,16,48,8.80
2011,04,25,16,49,8.80
2011,04,25,16,50,8.80
2011,04,25,16,51,8.80
2011,04,25,16,52,8.80
2011,04,25,16,53,8.80
2011,04,25,16,54,8.80
2011,04,25,16,55,8.80
2011,04,25,16,56,8.80
2011,04,25,16,57,8.90
2011,04,25,16,58,8.90
2011,04,25,16,59,8.90
2011,04,25,17,00,9.00
2011,04,25,17,01,9.00
2011,04,25,17,02,9.00
2011,04,25,17,03,9.00
2011,04,25,17,04,9.00
2011,04,25,17,05,9.10
2011,04,25,17,06,9.10
2011,04,25,17,07,9.10
2011,04,25,17,08,9.20
2011,04,25,17,09,9.20
2011,04,25,17,10,9.10
2011,04,25,17,11,9.20
2011,04,25,17,12,9.10
2011,04,25,17,13,9.20
2011,04,25,17,14,9.20
2011,04,25,17,15,9.10
2011,04,25,17,16,9.10
2011,04,25,17,17,9.10
2011,04,25,17,18,9.00
2011,04,25,17,19,9.00
2011,04,25,17,20,9.00
2011,04,25,17,21,9.00
2011,04,25,17,22,9.10
2011,04,25,17,23,9.10
2011,04,25,17,24,9.10
2011,04,25,17,25,9.20
2011,04,25,17,26,9.20
2011,04,25,17,27,9.10
2011,04,25,17,28,9.10
2011,04,25,17,29,9.10
2011,04,25,17,30,9.10
2011,04,25,17,31,9.10
2011,04,25,17,32,9.10
2011,04,25,17,33,9.10
2011,04,25,17,34,9.10
2011,04,25,17,35,9.00
2011,04,25,17,36,9.00
2011,04,25,17,37,9.00
2011,04,25,17,38,9.10
2011,04,25,17,39,9.10
2011,04,25,17,40,9.00
2011,04,25,17,41,9.00
2011,04,25,17,42,9.00
2011,04,25,17,43,9.10
2011,04,25,17,44,9.10
2011,04,25,17,45,9.10
2011,04,25,17,46,9.00
2011,04,25,17,47,9.00
2011,04,25,17,48,9.00
2011,04,25,17,49,9.00
2011,04,25,17,50,9.00
2011,04,25,17,51,9.00
2011,04,25,17,52,9.00
2011,04,25,17,53,9.00
2011,04,25,17,54,9.00
2011,04,25,17,55,8.90
2011,04,25,17,56,8.90
2011,04,25,17,57,8.90
2011,04,25,17,58,8.90
2011,04,25,17,59,8.90
2011,04,25,18,00,8.90
2011,04,25,18,01,8.90
2011,04,25,18,02,8.90
2011,04,25,18,03,8.90
2011,04,25,18,04,8.90
2011,04,25,18,05,8.90
2011,04,25,18,06,8.90
2011,04,25,18,07,8.80
2011,04,25,18,08,8.90
2011,04,25,18,09,8.90
2011,04,25,18,10,8.90
2011,04,25,18,11,8.90
2011,04,25,18,12,8.90
2011,04,25,18,13,8.90
2011,04,25,18,14,8.90
2011,04,25,18,15,8.90
2011,04,25,18,16,8.80
2011,04,25,18,17,8.80
2011,04,25,18,18,8.80
2011,04,25,18,19,8.80
2011,04,25,18,20,8.70
2011,04,25,18,21,8.70
2011,04,25,18,22,8.70
2011,04,25,18,23,8.70
2011,04,25,18,24,8.70
2011,04,25,18,25,8.70
2011,04,25,18,26,8.80
2011,04,25,18,27,8.80
2011,04,25,18,28,8.80
2011,04,25,18,29,8.80
2011,04,25,18,30,8.80
2011,04,25,18,31,8.80
2011,04,25,18,32,8.80
2011,04,25,18,33,8.80
2011,04,25,18,34,8.80
2011,04,25,18,35,8.80
2011,04,25,18,36,8.70
2011,04,25,18,37,8.70
2011,04,25,18,38,8.70
2011,04,25,18,39,8.70
2011,04,25,18,40,8.70
2011,04,25,18,41,8.70
2011,04,25,18,42,8.70
2011,04,25,18,43,8.70
2011,04,25,18,44,8.80
2011,04,25,18,45,8.80
2011,04,25,18,46,8.80
2011,04,25,18,47,8.80
2011,04,25,18,48,8.80
2011,04,25,18,49,8.80
2011,04,25,18,50,8.80
2011,04,25,18,51,8.80
2011,04,25,18,52,8.80
2011,04,25,18,53,8.80
2011,04,25,18,54,8.80
2011,04,25,18,55,8.80
2011,04,25,18,56,8.80
2011,04,25,18,57,8.80
2011,04,25,18,58,8.90
2011,04,25,18,59,8.90
2011,04,25,19,00,8.90
2011,04,25,19,01,8.90
2011,04,25,19,02,8.90
2011,04,25,19,03,8.90
2011,04,25,19,04,8.80
2011,04,25,19,05,8.90
2011,04,25,19,06,8.90
2011,04,25,19,07,8.90
2011,04,25,19,08,8.90
2011,04,25,19,09,8.90
2011,04,25,19,10,8.80
2011,04,25,19,11,8.80
2011,04,25,19,12,8.90
2011,04,25,19,13,8.90
2011,04,25,19,14,8.80
2011,04,25,19,15,8.70
2011,04,25,19,16,8.70
2011,04,25,19,17,8.70
2011,04,25,19,18,8.70
2011,04,25,19,19,8.60
2011,04,25,19,20,8.60
2011,04,25,19,21,8.60
2011,04,25,19,22,8.60
2011,04,25,19,23,8.60
2011,04,25,19,24,8.60
2011,04,25,19,25,8.60
2011,04,25,19,26,8.60
2011,04,25,19,27,8.50
2011,04,25,19,28,8.40
2011,04,25,19,29,8.40
2011,04,25,19,30,8.30
2011,04,25,19,31,8.30
2011,04,25,19,32,8.30
2011,04,25,19,33,8.30
2011,04,25,19,34,8.30
2011,04,25,19,35,8.30
2011,04,25,19,36,8.30
2011,04,25,19,37,8.30
2011,04,25,19,38,8.30
2011,04,25,19,39,8.30
2011,04,25,19,40,8.20
2011,04,25,19,41,8.10
2011,04,25,19,42,8.10
2011,04,25,19,43,8.00
2011,04,25,19,44,8.00
2011,04,25,19,45,7.90
2011,04,25,19,46,7.90
2011,04,25,19,47,7.90
2011,04,25,19,48,7.80
2011,04,25,19,49,7.80
2011,04,25,19,50,7.80
2011,04,25,19,51,7.70
2011,04,25,19,52,7.70
2011,04,25,19,53,7.70
2011,04,25,19,54,7.60
2011,04,25,19,55,7.50
2011,04,25,19,56,7.50
2011,04,25,19,57,7.40
2011,04,25,19,58,7.40
2011,04,25,19,59,7.30
2011,04,25,20,00,7.30
2011,04,25,20,01,7.20
2011,04,25,20,02,7.20
2011,04,25,20,03,7.20
2011,04,25,20,04,7.20
2011,04,25,20,05,7.20
2011,04,25,20,06,7.10
2011,04,25,20,07,7.10
2011,04,25,20,08,7.10
2011,04,25,20,09,7.10
2011,04,25,20,10,7.00
2011,04,25,20,11,7.00
2011,04,25,20,12,7.00
2011,04,25,20,13,7.00
2011,04,25,20,14,6.90
2011,04,25,20,15,6.90
2011,04,25,20,16,6.90
2011,04,25,20,17,6.80
2011,04,25,20,18,6.80
2011,04,25,20,19,6.80
2011,04,25,20,20,6.80
2011,04,25,20,21,6.70
2011,04,25,20,22,6.70
2011,04,25,20,23,6.70
2011,04,25,20,24,6.60
2011,04,25,20,25,6.60
2011,04,25,20,26,6.60
2011,04,25,20,27,6.50
2011,04,25,20,28,6.50
2011,04,25,20,29,6.50
2011,04,25,20,30,6.40
2011,04,25,20,31,6.40
2011,04,25,20,32,6.40
2011,04,25,20,33,6.40
2011,04,25,20,34,6.40
2011,04,25,20,35,6.30
2011,04,25,20,36,6.30
2011,04,25,20,37,6.30
2011,04,25,20,38,6.30
2011,04,25,20,39,6.30
2011,04,25,20,40,6.20
2011,04,25,20,41,6.20
2011,04,25,20,42,6.20
2011,04,25,20,43,6.20
2011,04,25,20,44,6.20
2011,04,25,20,45,6.10
2011,04,25,20,46,6.10
2011,04,25,20,47,6.10
2011,04,25,20,48,6.10
2011,04,25,20,49,6.10
2011,04,25,20,50,6.10
2011,04,25,20,51,6.10
2011,04,25,20,52,6.00
2011,04,25,20,53,6.00
2011,04,25,20,54,6.00
2011,04,25,20,55,6.00
2011,04,25,20,56,6.00
2011,04,25,20,57,6.00
2011,04,25,20,58,6.00
2011,04,25,20,59,6.00
2011,04,25,21,00,5.90
2011,04,25,21,01,5.90
2011,04,25,21,02,5.90
2011,04,25,21,03,5.90
2011,04,25,21,04,5.90
2011,04,25,21,05,5.90
2011,04,25,21,06,5.90
2011,04,25,21,07,5.90
2011,04,25,21,08,5.80
2011,04,25,21,09,5.80
2011,04,25,21,10,5.80
2011,04,25,21,11,5.80
2011,04,25,21,12,5.80
2011,04,25,21,13,5.80
2011,04,25,21,14,5.70
2011,04,25,21,15,5.70
2011,04,25,21,16,5.70
2011,04,25,21,17,5.70
2011,04,25,21,18,5.70
2011,04,25,21,19,5.70
2011,04,25,21,20,5.70
2011,04,25,21,21,5.60
2011,04,25,21,22,5.60
2011,04,25,21,23,5.60
2011,04,25,21,24,5.60
2011,04,25,21,25,5.60
2011,04,25,21,26,5.60
2011,04,25,21,27,5.60
2011,04,25,21,28,5.60
2011,04,25,21,29,5.50
2011,04,25,21,30,5.50
2011,04,25,21,31,5.50
2011,04,25,21,32,5.40
2011,04,25,21,33,5.40
2011,04,25,21,34,5.40
2011,04,25,21,35,5.40
2011,04,25,21,36,5.40
2011,04,25,21,37,5.30
2011,04,25,21,38,5.40
2011,04,25,21,39,5.30
2011,04,25,21,40,5.30
2011,04,25,21,41,5.30
2011,04,25,21,42,5.30
2011,04,25,21,43,5.30
2011,04,25,21,44,5.30
2011,04,25,21,45,5.20
2011,04,25,21,46,5.20
2011,04,25,21,47,5.20
2011,04,25,21,48,5.20
2011,04,25,21,49,5.20
2011,04,25,21,50,5.20
2011,04,25,21,51,5.20
2011,04,25,21,52,5.10
2011,04,25,21,53,5.10
2011,04,25,21,54,5.10
2011,04,25,21,55,5.10
2011,04,25,21,56,5.10
2011,04,25,21,57,5.10
2011,04,25,21,58,5.10
2011,04,25,21,59,5.10
2011,04,25,22,00,5.10
2011,04,25,22,01,5.10
2011,04,25,22,02,5.10
2011,04,25,22,03,5.10
2011,04,25,22,04,5.00
2011,04,25,22,05,5.00
2011,04,25,22,06,5.00
2011,04,25,22,07,5.00
2011,04,25,22,08,5.00
2011,04,25,22,09,5.00
2011,04,25,22,10,5.00
2011,04,25,22,11,5.00
2011,04,25,22,12,5.00
2011,04,25,22,13,5.00
2011,04,25,22,14,5.00
2011,04,25,22,15,5.00
2011,04,25,22,16,5.00
2011,04,25,22,17,5.00
2011,04,25,22,18,5.00
2011,04,25,22,19,5.00
2011,04,25,22,20,5.00
2011,04,25,22,21,5.00
2011,04,25,22,22,5.00
2011,04,25,22,23,5.00
2011,04,25,22,24,5.00
2011,04,25,22,25,5.10
2011,04,25,22,26,5.10
2011,04,25,22,27,5.10
2011,04,25,22,28,5.10
2011,04,25,22,29,5.10
2011,04,25,22,30,5.10
2011,04,25,22,31,5.10
2011,04,25,22,32,5.00
2011,04,25,22,33,5.10
2011,04,25,22,34,5.10
2011,04,25,22,35,5.10
2011,04,25,22,36,5.20
2011,04,25,22,37,5.20
2011,04,25,22,38,5.30
2011,04,25,22,39,5.30
2011,04,25,22,40,5.30
2011,04,25,22,41,5.30
2011,04,25,22,42,5.30
2011,04,25,22,43,5.30
2011,04,25,22,44,5.30
2011,04,25,22,45,5.30
2011,04,25,22,46,5.30
2011,04,25,22,47,5.30
2011,04,25,22,48,5.30
2011,04,25,22,49,5.30
2011,04,25,22,50,5.30
2011,04,25,22,51,5.20
2011,04,25,22,52,5.20
2011,04,25,22,53,5.20
2011,04,25,22,54,5.20
2011,04,25,22,55,5.20
2011,04,25,22,56,5.20
2011,04,25,22,57,5.10
2011,04,25,22,58,5.10
2011,04,25,22,59,5.10
2011,04,25,23,00,5.10
2011,04,25,23,01,5.10
2011,04,25,23,02,5.10
2011,04,25,23,03,5.10
2011,04,25,23,04,5.10
2011,04,25,23,05,5.10
2011,04,25,23,06,5.10
2011,04,25,23,07,5.10
2011,04,25,23,08,5.20
2011,04,25,23,09,5.20
2011,04,25,23,10,5.20
2011,04,25,23,11,5.10
2011,04,25,23,12,5.10
2011,04,25,23,13,5.10
2011,04,25,23,14,5.10
2011,04,25,23,15,5.10
2011,04,25,23,16,5.10
2011,04,25,23,17,5.10
2011,04,25,23,18,5.10
2011,04,25,23,19,5.10
2011,04,25,23,20,5.10
2011,04,25,23,21,5.10
2011,04,25,23,22,5.10
2011,04,25,23,23,5.10
2011,04,25,23,24,5.10
2011,04,25,23,25,5.10
2011,04,25,23,26,5.10
2011,04,25,23,27,5.10
2011,04,25,23,28,5.10
2011,04,25,23,29,5.10
2011,04,25,23,30,5.10
2011,04,25,23,31,5.20
2011,04,25,23,32,5.20
2011,04,25,23,33,5.30
2011,04,25,23,34,5.30
2011,04,25,23,35,5.30
2011,04,25,23,36,5.30
2011,04,25,23,37,5.30
2011,04,25,23,38,5.40
2011,04,25,23,39,5.40
2011,04,25,23,40,5.40
2011,04,25,23,41,5.40
2011,04,25,23,42,5.40
2011,04,25,23,43,5.40
2011,04,25,23,44,5.40
2011,04,25,23,45,5.40
2011,04,25,23,46,5.40
2011,04,25,23,47,5.40
2011,04,25,23,48,5.40
2011,04,25,23,49,5.40
2011,04,25,23,50,5.40
2011,04,25,23,51,5.30
2011,04,25,23,52,5.30
2011,04,25,23,53,5.30
2011,04,25,23,54,5.30
2011,04,25,23,55,5.20
2011,04,25,23,56,5.20
2011,04,25,23,57,5.20
2011,04,25,23,58,5.20
2011,04,25,23,59,5.20
